Location: Vancouver
(49.2500°N, 123.1330°W)
Time: 22:43:15
(UTC-07:00)

ISS - Visible Passes

Search period start: 26 May 2015 00:00
Search period end: 05 June 2015 00:00
Orbit: 399 x 404 km, 51.6° (Epoch: 27 May)

Date Brightness Start Highest point End Pass type
(mag) Time Alt. Az. Time Alt. Az. Time Alt. Az.
26 May -3.3 01:51:04 62° ESE 01:51:04 62° ESE 01:54:00 10° ENE visible
26 May -2.6 03:24:03 10° W 03:27:16 54° N 03:30:30 10° ENE visible
27 May -1.6 00:59:18 22° E 00:59:18 22° E 01:00:43 10° ENE visible
27 May -2.9 02:31:51 20° W 02:33:58 62° N 02:37:13 10° ENE visible
27 May -2.7 04:07:23 10° WNW 04:10:37 60° N 04:13:52 10° E visible
28 May -3.3 01:39:56 49° W 01:40:42 78° NNW 01:43:58 10° ENE visible
28 May -2.6 03:14:06 10° WNW 03:17:18 54° N 03:20:32 10° E visible
29 May -3.3 00:47:47 66° ESE 00:47:47 66° ESE 00:50:43 10° ENE visible
29 May -2.6 02:20:46 10° W 02:23:59 54° N 02:27:12 10° ENE visible
29 May -3.2 03:57:19 10° WNW 04:00:36 81° NNE 04:03:52 10° ESE visible
29 May -2.8 23:54:56 40° ESE 23:54:56 40° ESE 23:57:25 10° ENE visible
30 May -2.8 01:27:25 10° W 01:30:39 59° N 01:33:54 10° ENE visible
30 May -2.9 03:04:03 10° WNW 03:07:17 63° N 03:10:33 10° E visible
30 May -2.6 22:58:11 10° SSW 23:01:05 31° SSE 23:04:01 10° E visible
31 May -3.2 00:34:05 10° W 00:37:20 73° NNW 00:40:36 10° ENE visible
31 May -2.6 02:10:44 10° WNW 02:13:57 55° N 02:17:11 10° E visible
31 May -3.4 03:47:13 10° WNW 03:50:27 66° SSW 03:53:42 10° ESE visible
31 May -1.9 22:05:36 10° S 22:07:58 19° SE 22:10:23 10° E visible
31 May -3.5 23:40:47 10° WSW 23:44:02 82° SSE 23:47:18 10° ENE visible
01 Jun -2.6 01:17:23 10° W 01:20:36 53° N 01:23:49 10° ENE visible
01 Jun -3.4 02:53:55 10° WNW 02:57:11 86° NNE 03:00:28 10° ESE visible
01 Jun -2.2 04:30:39 10° W 04:33:20 23° SW 04:36:00 10° SSE visible
01 Jun -3.3 22:47:36 10° SW 22:50:47 55° SSE 22:53:59 10° ENE visible
02 Jun -2.7 00:24:00 10° W 00:27:13 57° N 00:30:27 10° ENE visible
02 Jun -3.0 02:00:37 10° WNW 02:03:52 66° NNE 02:07:07 10° E visible
02 Jun -2.9 03:37:08 10° W 03:40:12 37° SSW 03:43:14 10° SE visible
02 Jun -2.7 21:54:35 10° SW 21:57:35 34° SSE 22:00:35 10° E visible
02 Jun -3.1 23:30:37 10° W 23:33:52 69° NNW 23:37:07 10° ENE visible
03 Jun -2.7 01:07:17 10° WNW 01:10:30 56° N 01:13:43 10° E visible
03 Jun -3.4 02:43:44 10° WNW 02:46:58 59° SSW 02:50:11 10° SE visible
03 Jun -1.4 04:21:19 10° WSW 04:22:53 13° SW 04:24:22 10° SSW visible
03 Jun -3.4 22:37:16 10° WSW 22:40:32 89° SE 22:43:48 10° ENE visible
04 Jun -2.5 00:13:54 10° WNW 00:17:06 53° N 00:20:19 10° E visible
04 Jun -3.5 01:50:24 10° WNW 01:53:40 87° SSW 01:56:57 10° ESE visible
04 Jun -2.0 03:27:14 10° W 03:29:39 21° SW 03:29:39 21° SW visible
04 Jun -2.6 23:20:29 10° W 23:23:42 56° N 23:26:55 10° ENE visible
